Find Galaxy 2

NORAD ID: 14365 Int'l Des: 1983-098 Owner: HCI Country: US operational
HEOCIRCULAR

Live-Position

3D-Globus wird geladen...

Über Galaxy 2

Beschreibung wird geladen...

Nächste Überflüge

Passes for default location (London). Set your location on the main map for personalized predictions.

Höhenverlauf

Loading altitude history...

Zweizeiliger Elementsatz

1 14365U 83098A 26104.38829442 .00000109 00000-0 00000+0 0 9999
2 14365 13.6580 342.4609 0004101 77.8433 125.5743 1.00185249131596
Epoch: 14. Apr. 2026 • Age: 18 hours

Aktueller Status

Höhe 35795.1 km
Geschwindigkeit 3.08 km/s
Subsatellitenpunkt 12.81°N, 156.13°W
Startdatum 22. Sept. 1983
Alter 42.5 years
Typ other

Technische Details

Klassifizierung Payload
Masse 676.00 kg
Trockenmasse 540.00 kg
Gesamtmasse 1219.00 kg
Länge 6.80 m
Durchmesser 2.20 m
Spannweite 6.80 m
Form Cyl
Hersteller HSES
Bus-Typ HS-376
Phasenstatus In Orbit
Besitzer/Staat HCI/US

Most Searched